TimeMDT,TemperatureF,Dew PointF,Humidity,Sea Level PressureIn,VisibilityMPH,Wind Direction,Wind SpeedMPH,Gust SpeedMPH,PrecipitationIn,Events,Conditions,WindDirDegrees,DateUTC
12:58 AM,41.4,22.8,48,30.16,10.0,NW,12.7,-,N/A,,Clear,310,2013-04-10 06:58:00
1:58 AM,41.9,24.6,50,30.17,10.0,WNW,9.2,-,N/A,,Clear,290,2013-04-10 07:58:00
2:58 AM,37.9,25.7,61,30.19,10.0,West,10.4,-,N/A,,Clear,270,2013-04-10 08:58:00
3:58 AM,39.9,27.0,60,30.17,10.0,NW,10.4,-,N/A,,Clear,310,2013-04-10 09:58:00
4:58 AM,38.1,28.9,70,30.16,10.0,WNW,15.0,-,N/A,,Clear,300,2013-04-10 10:58:00
5:58 AM,36.7,28.2,71,30.17,10.0,NW,8.1,-,N/A,,Clear,310,2013-04-10 11:58:00
6:58 AM,36.0,27.5,71,30.18,10.0,WNW,8.1,-,N/A,,Clear,300,2013-04-10 12:58:00
7:58 AM,36.9,28.2,71,30.21,10.0,West,8.1,-,N/A,,Clear,280,2013-04-10 13:58:00
8:58 AM,42.8,28.6,57,30.20,10.0,NW,10.4,-,N/A,,Clear,310,2013-04-10 14:58:00
9:58 AM,50.7,27.0,40,30.19,10.0,NW,16.1,-,N/A,,Clear,310,2013-04-10 15:58:00
10:55 AM,54.5,25.0,32,30.17,10.0,WNW,15.0,-,N/A,,Clear,300,2013-04-10 16:55:00
10:56 AM,54.5,25.0,32,30.17,10.0,NW,15.0,-,N/A,,Clear,310,2013-04-10 16:56:00
11:58 AM,58.8,26.1,29,30.15,10.0,NW,18.4,24.2,N/A,,Clear,320,2013-04-10 17:58:00
12:28 PM,60.8,28.4,29,30.13,10.0,West,13.8,21.9,N/A,,Clear,280,2013-04-10 18:28:00
12:58 PM,62.6,29.7,29,30.11,10.0,NW,16.1,21.9,N/A,,Partly Cloudy,310,2013-04-10 18:58:00
1:58 PM,60.4,31.6,34,30.08,10.0,NNW,16.1,-,N/A,,Mostly Cloudy,330,2013-04-10 19:58:00
2:58 PM,59.4,32.2,36,30.08,10.0,NW,12.7,-,N/A,,Mostly Cloudy,320,2013-04-10 20:58:00
3:58 PM,60.6,32.9,35,30.04,10.0,North,6.9,-,N/A,,Scattered Clouds,360,2013-04-10 21:58:00
4:58 PM,60.8,34.5,37,30.00,10.0,Variable,2.3,-,N/A,,Scattered Clouds,0,2013-04-10 22:58:00
5:58 PM,63.5,35.6,35,29.95,10.0,NNW,6.9,-,N/A,,Scattered Clouds,330,2013-04-10 23:58:00
6:18 PM,62.6,39.2,42,29.97,10.0,NNW,12.7,-,N/A,Rain,Light Rain,330,2013-04-11 00:18:00
6:28 PM,60.8,41.0,48,29.95,10.0,North,11.5,-,N/A,Rain,Light Rain,350,2013-04-11 00:28:00
6:58 PM,61.0,41.2,48,29.95,10.0,NNW,10.4,-,0.00,,Mostly Cloudy,330,2013-04-11 00:58:00
7:58 PM,58.3,42.3,55,29.93,10.0,West,4.6,-,N/A,,Overcast,270,2013-04-11 01:58:00
8:03 PM,59.0,42.8,55,29.93,9.0,NW,4.6,-,N/A,Rain,Light Rain,320,2013-04-11 02:03:00
8:08 PM,57.2,44.6,63,29.94,9.0,NW,9.2,-,N/A,Rain,Light Rain,320,2013-04-11 02:08:00
8:57 PM,57.2,44.6,63,29.95,10.0,NW,12.7,-,N/A,,Overcast,310,2013-04-11 02:57:00
8:58 PM,56.8,44.8,64,29.95,10.0,NW,11.5,-,0.01,,Light Drizzle,310,2013-04-11 02:58:00
9:43 PM,53.6,46.4,77,29.97,10.0,WNW,16.1,-,N/A,,Mostly Cloudy,290,2013-04-11 03:43:00
9:48 PM,53.6,46.4,77,29.97,10.0,WNW,20.7,26.5,N/A,Rain,Light Rain,290,2013-04-11 03:48:00
9:58 PM,52.9,46.2,78,29.96,10.0,WNW,17.3,-,0.01,Rain,Light Rain,300,2013-04-11 03:58:00
10:13 PM,51.8,46.4,82,29.96,10.0,NW,13.8,-,N/A,,Light Drizzle,310,2013-04-11 04:13:00
10:38 PM,51.8,44.6,76,29.97,10.0,WNW,17.3,-,N/A,,Mostly Cloudy,290,2013-04-11 04:38:00
10:58 PM,51.1,44.4,78,29.98,10.0,WNW,13.8,-,0.00,,Scattered Clouds,290,2013-04-11 04:58:00
11:58 PM,48.7,41.2,75,29.97,10.0,WNW,19.6,-,N/A,,Partly Cloudy,300,2013-04-11 05:58:00